THOR ABLESTAR DEB, 354

Orbit data source: Space-Track

THOR ABLESTAR DEB, 354 is space debris in LEO originally from a launch on Thu, 29 Jun 1961 UTC launched from the Air Force Eastern Test Range (AFETR). Debris objects in space refer to the collection of defunct objects orbiting the Earth. Examples of debris include non-operational satellites, rocket bodies, and fragments generated from explosions, collisions, or faulty payload assembly.

Loading next visibility...
Identifier
354, 1961-015DU
Orbit
LEO
Country
Flag of USUS
Related business
Manufacturer
Unknown
Mission
Spacecraft
Bus & Motor
Unknown
Mass
Unknown
Launch date (UTC)
1961-06-29 (64 years ago)
Launch vehicle
Unknown
Launch site
Air Force Eastern Test Range (AFETR)
Object type
Payload
Rocket body
Debris
Shape & HBR
Unknown shape, 0.2 m
Radar Cross Section
Small (<0.1 m²)

Expand to show TLE details & history
Last TLE update: 10 hours ago

TLE from 10 hours ago
0 THOR ABLESTAR DEB
1 00354U 61015DU  25303.21060390  .00000134  00000-0  29344-3 0  9992
2 00354  67.0662 257.9342 0161232 111.6529 358.7241 13.49331745446849
Epoch: 2025-10-30T05:03Z
TLE epoch observation values (Epoch: 2025-10-30T05:03:16.176Z)
Latitude
59.83361°
Longitude
-83.05463°
Altitude
963.923 km
Speed
7.435 km/s
True Right ascension
02h 06m 08s
True Declination
59° 41' 17"
Sunlit
Object was in full shadow at epoch
Visualization orbit readout
Latitude
Unknown
Longitude
Unknown
Altitude
Unknown
Speed
Unknown
Apparent Right ascension
Unknown
Apparent Declination
Unknown
Sunlit
N/A
Visualization observer readout
Local Sidereal Time
10:50:50
Azimuth
Unknown
Elevation
Unknown
Doppler factor
Unknown
Orbital elements
Apogee altitude
1,193.252 km
Perigee altitude
952.976 km
Semi-major axis
7,451.251 km
Eccentricity
0.01612
Inclination
67.0662°
RAAN
257.9342°
Arg. of periapsis
111.6529°
True anomaly
358.68211°
Mean anomaly
358.7241°
Eccentric anomaly
358.70319°
Mean motion
3.37442 °/min
Orbital period
106.68 mins
BSTAR
0.00029344
Loading maneuver chart data...
Computing Atmospheric mass density...

Documentation

Showing up to 5 results
|